Henderson, KY

5:40 PM CST on November 18, 2019 (GMT -0600)
Henderson City-County

Weather History for KEHR - September, 2019

Change the Weather History Date:

Friday, September 27, 2019

  Actual Average Record
Temperature  
Mean Temperature 74 °F -  
Max Temperature 93 °F 77 °F 95 °F (1938)
Min Temperature 54 °F 52 °F 36 °F (1941)
Cooling Degree Days 8    
Growing Degree Days 24 (Base 50)    
Moisture  
Dew Point 60 °F    
Average Humidity 62    
Maximum Humidity 87    
Minimum Humidity 38    
Precipitation  
Precipitation 0.00 in - - ()
Sea Level Pressure  
Sea Level Pressure 29.89 in    
Wind  
Wind Speed 7 mph (South)    
Max Wind Speed 23 mph    
Max Gust Speed 32 mph    
Visibility 10 miles    
Events      
Averages and records for this station are not official NWS values.
T = Trace of Precipitation, MM = Missing Value Source: NWS Daily Summary

Daily Weather History Graph

Daily Weather History Graph

Search for Another Location

Airport or City:

Astronomy

Sep. 27, 2019 Rise Set
Actual Time 6:42 AM CDT 6:40 PM CDT
Civil Twilight 6:16 AM CDT 7:06 PM CDT
Nautical Twilight 5:45 AM CDT 7:36 PM CDT
Astronomical Twilight 5:15 AM CDT 8:07 PM CDT
Moon 5:06 AM CDT (9/27) 6:28 PM CDT (9/27)
Length of Visible Light 12h 49m
Length of Day
11h 57m
Waning Crescent, 2% of the Moon is Illuminated
Sep 27
Waning Crescent
Sep 28
New
Oct 5
First Quarter
Oct 13
Full
Oct 21
Last Quarter

Hourly Weather History & Observations

Time (CDT) Temp. Heat Index Dew Point Humidity Pressure Visibility Wind Dir Wind Speed Gust Speed Precip Events Conditions
12:56 AM 54.0 °F - 50.0 °F 86% 29.96 in 10.0 mi East 4.6 mph - N/A   Clear
1:56 AM 55.9 °F - 50.0 °F 80% 29.95 in 10.0 mi Calm Calm - N/A   Clear
2:56 AM 55.9 °F - 50.0 °F 80% 29.93 in 10.0 mi Calm Calm - N/A   Clear
3:56 AM 59.0 °F - 50.0 °F 72% 29.93 in 10.0 mi East 4.6 mph - N/A   Clear
4:56 AM 61.0 °F - 50.0 °F 67% 29.93 in 10.0 mi ESE 3.5 mph - N/A   Clear
5:56 AM 55.9 °F - 52.0 °F 87% 29.94 in 10.0 mi Calm Calm - N/A   Clear
6:56 AM 62.1 °F - 52.0 °F 70% 29.94 in 10.0 mi SSE 4.6 mph - N/A   Clear
7:56 AM 64.0 °F - 55.0 °F 73% 29.95 in 10.0 mi SSE 3.5 mph - N/A   Clear
8:56 AM 73.0 °F - 64.0 °F 73% 29.94 in 10.0 mi South 9.2 mph - N/A   Clear
9:56 AM 79.0 °F - 66.0 °F 64% 29.93 in 10.0 mi South 9.2 mph - N/A   Clear
10:56 AM 84.9 °F 87.6 °F 66.9 °F 55% 29.91 in 8.0 mi SSW 13.8 mph 20.7 mph N/A   Clear
11:56 AM 88.0 °F 90.3 °F 66.0 °F 48% 29.88 in 10.0 mi SW 15.0 mph 20.7 mph N/A   Clear
12:56 PM 91.0 °F 91.9 °F 63.0 °F 39% 29.87 in 10.0 mi SW 23.0 mph 32.2 mph N/A   Clear
1:56 PM 93.0 °F 94.6 °F 64.0 °F 38% 29.85 in 10.0 mi SSW 20.7 mph 25.3 mph N/A   Clear
2:56 PM 93.0 °F 94.6 °F 64.0 °F 38% 29.83 in 10.0 mi SSW 17.3 mph 27.6 mph N/A   Partly Cloudy
3:56 PM 91.0 °F 92.6 °F 64.0 °F 41% 29.83 in 10.0 mi SSW 15.0 mph - N/A   Scattered Clouds
4:56 PM 90.0 °F 91.3 °F 64.0 °F 42% 29.83 in 10.0 mi SSW 13.8 mph - N/A   Clear
5:56 PM 89.1 °F 90.3 °F 64.0 °F 43% 29.84 in 10.0 mi SSW 10.4 mph - N/A   Clear
6:56 PM 81.0 °F 82.5 °F 64.0 °F 56% 29.85 in 10.0 mi SSW 6.9 mph - N/A   Clear
7:56 PM 80.1 °F 81.7 °F 64.0 °F 58% 29.84 in 10.0 mi South 6.9 mph - N/A   Clear
8:56 PM 78.1 °F - 64.9 °F 64% 29.83 in 10.0 mi South 6.9 mph - N/A   Clear
9:56 PM 78.1 °F - 66.9 °F 68% 29.82 in 10.0 mi South 8.1 mph - N/A   Clear
10:56 PM 79.0 °F - 66.9 °F 66% 29.84 in 10.0 mi SSW 9.2 mph - N/A   Clear
11:56 PM 75.9 °F - 66.9 °F 74% 29.87 in 10.0 mi South 6.9 mph - N/A   Clear